sat.trackr.live / text

‹ back to catalog

LOPEN

NORAD 60473 · 2024-149F

PAYLOAD ACTIVE UNKNOWN

§ Identity

Operator
Country
US
Launch date
2024-08-16
Launch site
AFWTR
Launch vehicle
Mass (kg)
RCS (m²)

External: N2YO · Heavens-Above · Gunter

§ Orbital elements

Epoch: 2026-09-22T11:14:47.622336Z

Period
93.37 min
Inclination
97.3727°
Eccentricity
0.0000385
Mean motion
15.42253227 rev/d
Perigee alt
439.2 km
Apogee alt
439.7 km
Semi-major
6,817.6 km
B*
2.7077e-4
RAAN
349.7480°
Arg perigee
178.4376°
Mean anomaly
181.6873°
Rev number
11,724

§ Raw data

LOPEN1 60473U 24149F   26265.46860674  .00011555  00000+0  27077-3 0  99942 60473  97.3727 349.7480 0000385 178.4376 181.6873 15.42253227117246

JSON: /api/v1/satellites/60473 · /tle

For live sub-satellite position, see the globe view (requires WebGL).

§ Visibility from observer

Set your observer location to see the next 7 days of passes ≥ 10°. The values pass through the URL so the page stays shareable.

No JS? Fill the form by hand. The geolocation button needs JavaScript.